Location: White Rock
(35.8256°N, 106.1876°W)
Time: 00:28:27
(UTC-07:00)

Tiangong 2 - Visible Passes

Search period start: 24 January 2019 00:00
Search period end: 03 February 2019 00:00
Orbit: 380 x 392 km, 42.8° (Epoch: 24 January)

Date Brightness Start Highest point End Pass type
(mag) Time Alt. Az. Time Alt. Az. Time Alt. Az.
24 Jan 4.3 04:53:39 12° NE 04:53:39 12° NE 04:53:57 10° NE visible
24 Jan 2.0 06:25:54 12° NW 06:28:38 40° NNE 06:31:41 10° E visible
25 Jan 2.5 05:29:37 29° NNE 05:29:37 29° NNE 05:32:19 10° ENE visible
26 Jan 1.2 06:05:37 23° NW 06:07:24 67° NNE 06:10:35 10° ESE visible
27 Jan 3.0 05:09:24 29° ENE 05:09:24 29° ENE 05:11:20 10° E visible
27 Jan 2.2 06:42:09 10° W 06:45:03 33° SSW 06:47:57 10° SSE visible
28 Jan 1.1 05:45:30 51° W 05:46:05 65° SSW 05:49:13 10° SE visible
29 Jan 4.1 04:49:25 16° ESE 04:49:25 16° ESE 04:50:12 10° ESE visible
29 Jan 3.1 06:21:40 11° WSW 06:23:33 17° SW 06:25:42 10° S visible
30 Jan 2.7 05:25:39 25° S 05:25:39 25° S 05:27:31 10° SSE visible
